Location: Sedan
(39.2354°N, 78.5718°W)
Time: 00:29:19
(UTC+00:00)

Envisat - Pass Details

Date: 08 December 2021
Orbit: 764 x 766 km, 98.2° (Epoch: 21 January)

Event Time Altitude Azimuth Distance (km) Brightness Sun altitude
Rises 09:45:15 0° 19° (NNE) 3,239 6.4 -29.5°
Reaches altitude 10° 09:47:39 10° 25° (NNE) 2,309 5.7 -29.0°
Maximum altitude 09:52:32 46° 99° (E) 1,024 4.0 -28.1°
Drops below altitude 10° 09:57:23 10° 172° (S) 2,292 5.6 -27.1°
Sets 09:59:45 0° 178° (S) 3,213 6.4 -26.7°
